PBO Station Position Time Series. Reference Frame : NAM14
Format Version,1.1.1
4-character ID,P194
Station name,WalkerCrk_CN2007
Begin Date, 2007-09-19
End Date, 2023-06-26
Release Date, 2023-06-27
Reference position, 38.1857167204 North Latitude, -122.8162586751 East Longitude, 235.12981 meters elevation,
Date, North (mm), East (mm), Vertical (mm), North Std. Deviation (mm), East Std. Deviation (mm),              Vertical Std. Deviation (mm), Quality,
2007-09-19,0.00, 0.00, 0.00, 1.99, 1.58, 7.17, repro,
2007-09-20,-1.74, 0.61, 3.18, 1.99, 1.57, 7.13, repro,
2007-09-21,-1.63, 1.90, 8.09, 2.07, 1.61, 7.53, repro,
2007-09-22,-0.65, 1.39, 5.35, 2.06, 1.64, 7.46, repro,
2007-09-23,-0.40, 1.17, 11.63, 2.07, 1.64, 7.45, repro,
2007-09-24,-0.33, 2.81, 7.53, 2.09, 1.64, 7.50, repro,
2007-09-25,-1.86, 1.24, 4.71, 2.06, 1.61, 7.43, repro,
2007-09-26,-0.96, 1.14, 9.88, 2.09, 1.60, 7.47, repro,
2007-09-27,-1.48, 1.31, 3.57, 2.07, 1.62, 7.56, repro,
2007-09-28,-1.05, 1.02, 9.00, 2.09, 1.73, 7.65, repro,
2007-09-29,-1.67, 0.68, 7.28, 2.04, 1.66, 7.42, repro,
2007-09-30,-0.77, 1.04, 6.94, 2.05, 1.67, 7.41, repro,
2007-10-01,-1.32, 1.14, 1.85, 2.08, 1.68, 7.62, repro,
2007-10-02,-0.51, 1.34, 10.24, 2.11, 1.73, 7.81, repro,
2007-10-03,-0.80, 1.71, 10.08, 2.07, 1.66, 7.62, repro,
2007-10-04,0.59, 0.27, 10.27, 2.05, 1.65, 7.52, repro,
2007-10-05,-1.28, 1.71, 10.25, 2.07, 1.71, 7.64, repro,
2007-10-06,-1.62, 1.44, 10.66, 2.09, 1.68, 7.53, repro,
2007-10-07,-0.96, 1.96, 4.47, 2.10, 1.68, 7.57, repro,
2007-10-08,-1.60, 2.24, 7.50, 2.30, 1.79, 8.47, repro,
2007-10-09,-1.89, 1.25, 14.10, 2.20, 1.84, 8.21, repro,
2007-10-10,-0.40, 2.39, -0.34, 2.17, 1.70, 7.80, repro,
2007-10-11,-0.59, 2.10, 8.00, 2.03, 1.67, 7.39, repro,
2007-10-12,0.61, 2.21, 4.60, 2.11, 1.70, 7.61, repro,
2007-10-13,-0.63, 1.53, 5.22, 2.00, 1.61, 7.29, repro,
2007-10-14,-0.87, 1.61, 8.86, 2.01, 1.62, 7.42, repro,
2007-10-15,-1.48, 1.40, 13.11, 1.98, 1.61, 7.32, repro,
2007-10-16,-0.77, 2.34, 9.61, 2.02, 1.66, 7.34, repro,
2007-10-17,-0.65, 3.33, 9.85, 2.01, 1.63, 7.38, repro,
2007-10-18,0.50, 1.84, 10.29, 1.99, 1.60, 7.26, repro,
2007-10-19,0.84, 1.93, 7.07, 1.99, 1.61, 7.29, repro,
2007-10-20,0.21, 1.33, 7.41, 2.00, 1.60, 7.43, repro,
2007-10-21,-2.05, 2.35, 10.31, 1.98, 1.61, 7.29, repro,
2007-10-22,0.14, 2.30, 2.51, 1.99, 1.60, 7.29, repro,
2007-10-23,0.05, 2.45, 0.57, 2.04, 1.66, 7.41, repro,
2007-10-24,-0.87, 1.82, 1.28, 2.09, 1.71, 7.66, repro,
2007-10-25,0.21, 1.08, -0.53, 2.00, 1.61, 7.34, repro,
2007-10-26,-0.49, 1.78, -2.48, 2.03, 1.66, 7.46, repro,
2007-10-27,-0.92, 2.69, 0.37, 1.99, 1.62, 7.31, repro,
2007-10-28,-0.50, 1.71, -2.37, 1.99, 1.61, 7.31, repro,
2007-10-29,0.25, 1.66, 0.19, 1.99, 1.60, 7.25, repro,
2007-10-30,-1.01, 1.94, 2.90, 1.98, 1.61, 7.27, repro,
2007-10-31,-0.93, 1.86, 2.22, 2.00, 1.61, 7.33, repro,
2007-11-01,-0.43, 2.00, 1.98, 1.96, 1.57, 7.13, repro,
2007-11-02,-0.34, 1.87, 5.51, 1.97, 1.58, 7.12, repro,
2007-11-03,-0.38, 2.07, 1.30, 1.96, 1.57, 7.09, repro,
2007-11-04,0.30, 2.56, 2.62, 1.97, 1.57, 7.12, repro,
2007-11-05,-0.58, 1.75, 1.23, 1.95, 1.57, 7.06, repro,
2007-11-06,-0.89, 1.40, -2.01, 2.03, 1.67, 7.50, repro,
2007-11-07,-1.34, 1.18, -2.62, 1.95, 1.58, 7.11, repro,
2007-11-08,-1.02, 1.83, 2.27, 1.99, 1.60, 7.19, repro,
2007-11-09,-0.69, 1.14, -3.15, 2.00, 1.60, 7.21, repro,
2007-11-10,0.27, 1.91, -2.24, 1.96, 1.57, 7.13, repro,
2007-11-11,-0.76, 0.89, -0.97, 1.95, 1.57, 7.12, repro,
2007-11-12,-0.41, 2.02, 5.30, 1.97, 1.58, 7.21, repro,
2007-11-13,-0.18, 1.55, 2.06, 1.95, 1.56, 7.12, repro,
2007-11-14,-0.14, 1.62, -5.61, 1.99, 1.58, 7.21, repro,
2007-11-15,0.17, 0.80, -2.34, 2.00, 1.59, 7.23, repro,
2007-11-16,-0.27, 1.13, -0.98, 1.98, 1.60, 7.24, repro,
2007-11-17,0.06, 0.33, -2.98, 1.96, 1.58, 7.17, repro,
2007-11-18,-0.17, 1.02, 1.46, 1.96, 1.59, 7.19, repro,
2007-11-19,0.86, 2.34, -3.23, 1.97, 1.57, 7.15, repro,
2007-11-20,0.07, 0.93, -8.88, 1.99, 1.62, 7.25, repro,
2007-11-21,0.63, 0.68, -2.01, 1.97, 1.62, 7.28, repro,
2007-11-22,0.07, -0.03, -6.32, 1.95, 1.59, 7.13, repro,
2007-11-23,0.40, 0.09, 1.97, 1.98, 1.67, 7.37, repro,
2007-11-24,1.13, -0.05, -0.25, 2.04, 1.67, 7.37, repro,
2007-11-25,0.69, 0.09, 2.57, 2.08, 1.73, 7.47, repro,
2007-11-26,1.34, 0.72, -9.78, 2.09, 1.71, 7.61, repro,
2007-11-27,0.55, 1.43, 4.30, 2.05, 1.69, 7.50, repro,
2007-11-28,0.37, 0.87, -3.30, 2.10, 1.72, 7.60, repro,
2007-11-29,1.14, 0.09, -3.58, 2.05, 1.66, 7.53, repro,
2007-11-30,0.09, 0.21, -3.87, 2.06, 1.69, 7.42, repro,
2007-12-01,0.60, -0.15, 1.37, 2.14, 1.78, 7.82, repro,
2007-12-02,0.48, 1.90, -3.74, 2.17, 1.82, 8.11, repro,
2007-12-03,0.71, 0.58, -5.58, 2.21, 1.83, 8.30, repro,
2007-12-04,-0.37, 0.42, 0.29, 2.28, 2.00, 8.59, repro,
2007-12-05,1.12, 1.39, 2.45, 2.08, 1.78, 7.88, repro,
2007-12-06,1.90, 1.59, 2.17, 2.29, 2.04, 8.69, repro,
2007-12-07,-0.72, 2.06, 0.11, 2.15, 1.80, 7.93, repro,
2007-12-08,-0.92, 0.98, 3.90, 2.07, 1.72, 7.64, repro,
2007-12-09,-0.32, 1.90, 3.24, 2.26, 2.05, 8.94, repro,
2007-12-10,0.92, 0.80, -4.06, 2.07, 1.75, 7.59, repro,
2007-12-11,0.21, 1.19, -2.79, 2.14, 1.79, 7.84, repro,
2007-12-12,1.77, 1.05, -12.05, 2.11, 1.69, 7.85, repro,
2007-12-13,1.17, 1.32, -3.99, 2.07, 1.66, 7.61, repro,
2007-12-14,1.30, 1.49, -1.20, 2.02, 1.61, 7.35, repro,
2007-12-15,-0.15, 1.93, 5.69, 2.02, 1.60, 7.37, repro,
2007-12-16,-0.04, 0.76, 0.80, 2.02, 1.61, 7.37, repro,
2007-12-17,1.02, 2.18, 3.14, 2.03, 1.61, 7.41, repro,
2007-12-18,2.02, 0.77, 1.06, 2.05, 1.65, 7.52, repro,
2007-12-19,0.23, 1.70, 1.69, 2.12, 1.68, 7.73, repro,
2007-12-20,1.87, 1.29, 0.59, 2.05, 1.68, 7.47, repro,
2007-12-21,-0.12, 1.45, -10.24, 2.08, 1.67, 7.56, repro,
2007-12-22,0.95, 2.49, 0.82, 2.16, 1.79, 8.10, repro,
2007-12-23,1.75, 2.69, -3.91, 2.07, 1.69, 7.63, repro,
2007-12-24,0.22, 2.35, 0.16, 2.08, 1.70, 7.64, repro,
2007-12-25,1.39, 1.71, -0.78, 2.04, 1.64, 7.44, repro,
2007-12-26,0.94, 1.15, 3.19, 2.02, 1.63, 7.37, repro,
2007-12-27,0.97, 2.06, 3.66, 2.06, 1.66, 7.57, repro,
2007-12-28,0.84, 1.91, 4.68, 2.08, 1.67, 7.65, repro,
2007-12-29,0.89, 2.31, 2.66, 2.06, 1.66, 7.57, repro,
2007-12-30,0.33, 1.57, -3.54, 2.08, 1.66, 7.58, repro,
2007-12-31,0.23, 2.44, -2.06, 2.01, 1.58, 7.25, repro,
2008-01-01,1.61, 2.43, -4.93, 2.00, 1.58, 7.25, repro,
2008-01-02,0.80, 3.19, -3.56, 2.03, 1.59, 7.31, repro,
2008-01-03,-0.71, 0.48, -0.74, 2.04, 1.59, 7.41, repro,
2008-01-04,1.11, 1.76, 0.14, 2.04, 1.60, 7.40, repro,
2008-01-05,0.57, 0.77, 3.55, 1.99, 1.55, 7.18, repro,
2008-01-06,0.31, 1.38, 2.46, 2.00, 1.56, 7.27, repro,
2008-01-07,0.13, 1.89, 1.54, 1.99, 1.56, 7.22, repro,
2008-01-08,1.26, 3.82, -3.37, 2.15, 1.67, 7.80, repro,
2008-01-09,-0.94, 2.95, -0.20, 2.02, 1.57, 7.31, repro,
2008-01-10,1.73, 2.83, -3.86, 2.05, 1.61, 7.37, repro,
2008-01-11,0.69, 3.20, -0.35, 1.99, 1.56, 7.23, repro,
2008-01-12,0.91, 4.10, -2.49, 2.03, 1.62, 7.31, repro,
2008-01-13,-0.32, 2.48, -9.66, 2.00, 1.58, 7.24, repro,
2008-01-14,1.29, 3.68, -6.00, 1.97, 1.57, 7.17, repro,
2008-01-15,0.45, 2.80, 1.62, 2.04, 1.57, 7.38, repro,
2008-01-16,0.82, 2.67, -7.12, 2.02, 1.58, 7.28, repro,
2008-01-17,0.96, 2.63, -3.25, 2.01, 1.58, 7.28, repro,
2008-01-18,0.29, 3.14, -1.68, 1.99, 1.61, 7.31, repro,
2008-01-19,0.80, 2.85, -7.57, 1.97, 1.57, 7.15, repro,
2008-01-20,-0.11, 2.52, -4.65, 1.95, 1.55, 7.09, repro,
2008-01-21,0.32, 2.64, -5.83, 1.97, 1.57, 7.19, repro,
2008-01-22,0.06, 3.00, 0.03, 1.97, 1.56, 7.14, repro,
2008-01-23,0.35, 2.35, -5.27, 1.96, 1.56, 7.07, repro,
2008-01-24,-1.13, 3.54, -0.75, 1.98, 1.57, 7.17, repro,
2008-01-25,-0.12, 3.17, -4.22, 1.96, 1.56, 7.10, repro,
2008-01-26,0.06, 3.38, -2.06, 1.96, 1.56, 7.12, repro,
2008-01-27,1.17, 2.75, 4.77, 1.98, 1.56, 7.18, repro,
2008-01-28,-0.03, 2.55, 6.54, 1.99, 1.57, 7.17, repro,
2008-01-29,0.44, 4.12, -4.51, 2.06, 1.69, 7.52, repro,
2008-01-30,0.44, 3.03, -3.51, 2.07, 1.65, 7.56, repro,
2008-01-31,0.26, 2.45, -8.90, 1.95, 1.56, 7.12, repro,
2008-02-01,0.50, 3.21, -4.54, 1.96, 1.57, 7.13, repro,
2008-02-02,-0.06, 2.79, -11.70, 1.97, 1.57, 7.16, repro,
2008-02-03,-1.33, 3.18, -1.45, 1.95, 1.56, 7.06, repro,
2008-02-04,1.92, 4.39, -13.25, 1.97, 1.57, 7.15, repro,
2008-02-05,1.03, 4.33, -5.64, 2.00, 1.64, 7.33, repro,
2008-02-06,0.15, 4.14, -9.40, 1.99, 1.63, 7.34, repro,
2008-02-07,1.16, 3.29, -6.33, 2.01, 1.62, 7.44, repro,
2008-02-08,-0.42, 4.10, -4.03, 1.97, 1.57, 7.17, repro,
2008-02-09,-0.46, 4.58, -1.99, 1.97, 1.58, 7.18, repro,
2008-02-10,0.14, 3.62, 0.21, 1.97, 1.57, 7.16, repro,
2008-02-11,0.72, 4.06, -2.49, 1.96, 1.56, 7.11, repro,
2008-02-12,-0.11, 4.05, -1.08, 1.96, 1.56, 7.14, repro,
2008-02-13,0.19, 2.57, -1.18, 1.96, 1.57, 7.14, repro,
2008-02-14,0.18, 3.58, -0.77, 1.96, 1.57, 7.13, repro,
2008-02-15,1.41, 2.55, -3.58, 2.01, 1.63, 7.35, repro,
2008-02-16,-0.13, 3.22, -0.06, 1.97, 1.58, 7.16, repro,
2008-02-17,-0.83, 3.97, -2.50, 1.95, 1.56, 7.08, repro,
2008-02-18,0.11, 3.15, -0.35, 1.98, 1.58, 7.25, repro,
2008-02-19,-0.24, 3.86, 0.98, 1.96, 1.58, 7.14, repro,
2008-02-20,1.01, 4.50, -3.49, 2.02, 1.61, 7.26, repro,
2008-02-21,-0.06, 2.89, -4.31, 1.96, 1.58, 7.18, repro,
2008-02-22,-1.15, 4.15, 2.94, 1.96, 1.57, 7.12, repro,
2008-02-23,-0.39, 3.46, -5.57, 1.98, 1.58, 7.27, repro,
2008-02-24,0.80, 2.79, -4.99, 1.97, 1.59, 7.27, repro,
2008-02-25,-0.45, 2.84, -3.34, 1.98, 1.58, 7.23, repro,
2008-02-26,-0.64, 4.32, -9.93, 1.98, 1.59, 7.24, repro,
2008-02-27,-0.37, 3.84, -6.18, 2.01, 1.61, 7.32, repro,
2008-02-28,-1.11, 3.05, -10.04, 2.01, 1.62, 7.37, repro,
2008-02-29,-0.33, 2.81, -6.03, 2.00, 1.62, 7.37, repro,
2008-03-01,0.22, 3.22, -2.01, 1.96, 1.59, 7.20, repro,
2008-03-02,-0.42, 3.18, -0.46, 2.00, 1.60, 7.28, repro,
2008-03-03,-0.57, 3.96, -2.64, 1.96, 1.57, 7.15, repro,
2008-03-04,-0.36, 3.92, -2.50, 1.97, 1.58, 7.22, repro,
2008-03-05,-0.03, 2.79, -6.11, 2.03, 1.69, 7.68, repro,
2008-03-06,-0.04, 2.58, -5.78, 1.96, 1.57, 7.17, repro,
2008-03-07,0.63, 3.04, -7.22, 1.97, 1.58, 7.22, repro,
2008-03-08,-0.41, 3.23, -4.50, 2.01, 1.62, 7.47, repro,
2008-03-09,-1.05, 2.67, -0.08, 2.01, 1.62, 7.50, repro,
2008-03-10,-0.51, 2.66, -6.50, 1.97, 1.58, 7.25, repro,
2008-03-11,0.05, 2.85, -4.33, 1.97, 1.58, 7.22, repro,
2008-03-12,-0.07, 2.31, -3.58, 2.00, 1.61, 7.44, repro,
2008-03-13,-1.01, 2.38, 1.02, 2.00, 1.61, 7.38, repro,
2008-03-14,-0.62, 1.67, -2.71, 1.99, 1.62, 7.42, repro,
2008-03-15,-0.25, 1.51, -5.42, 1.97, 1.59, 7.25, repro,
2008-03-16,-1.24, 2.25, 1.46, 2.01, 1.63, 7.44, repro,
2008-03-17,-0.48, 1.46, -0.64, 2.10, 1.74, 8.00, repro,
2008-03-18,-1.29, 2.08, -2.54, 2.03, 1.66, 7.57, repro,
2008-03-19,0.28, 2.29, -3.14, 2.00, 1.61, 7.37, repro,
2008-03-20,0.10, 2.62, -5.97, 2.01, 1.61, 7.43, repro,
2008-03-21,-0.25, 2.63, -8.10, 2.00, 1.61, 7.39, repro,
2008-03-22,-0.19, 2.28, -6.74, 2.01, 1.61, 7.42, repro,
2008-03-23,-0.44, 1.91, -11.32, 2.02, 1.62, 7.42, repro,
2008-03-24,-0.05, 2.42, -5.43, 2.00, 1.61, 7.39, repro,
2008-03-25,0.36, 3.86, -2.52, 2.04, 1.65, 7.49, repro,
2008-03-26,0.25, 1.72, -5.95, 2.07, 1.69, 7.80, repro,
2008-03-27,-0.90, 1.65, -7.47, 2.03, 1.63, 7.50, repro,
2008-03-28,0.08, 2.39, -3.59, 2.01, 1.61, 7.37, repro,
2008-03-29,0.63, 2.30, -1.88, 2.01, 1.59, 7.37, repro,
2008-03-30,0.46, 1.74, -5.46, 1.99, 1.57, 7.26, repro,
2008-03-31,0.35, 2.65, -1.13, 1.99, 1.57, 7.27, repro,
2008-04-01,0.35, 1.80, -4.38, 1.99, 1.57, 7.28, repro,
2008-04-02,-0.21, 1.45, -2.43, 2.04, 1.59, 7.48, repro,
2008-04-03,-0.42, 2.24, -0.16, 2.00, 1.58, 7.33, repro,
2008-04-04,0.37, 2.77, -7.92, 2.00, 1.58, 7.37, repro,
2008-04-05,0.08, 1.61, 1.89, 2.00, 1.58, 7.30, repro,
2008-04-06,-0.10, 2.45, -2.69, 1.99, 1.57, 7.29, repro,
2008-04-07,-0.91, 2.84, -3.99, 1.98, 1.57, 7.28, repro,
2008-04-08,-0.34, 1.29, 1.11, 2.01, 1.57, 7.35, repro,
2008-04-09,-1.24, 3.06, 3.03, 2.01, 1.58, 7.38, repro,
2008-04-10,-0.56, 2.68, -1.28, 1.99, 1.58, 7.33, repro,
2008-04-11,-0.50, 2.28, 1.19, 2.00, 1.58, 7.33, repro,
2008-04-12,-1.40, 2.48, -2.01, 2.00, 1.58, 7.35, repro,
2008-04-13,0.03, 2.07, -3.32, 2.00, 1.57, 7.33, repro,
2008-04-14,-0.20, 0.87, -4.72, 2.07, 1.60, 7.52, repro,
2008-04-15,-0.46, 1.79, 2.79, 2.03, 1.63, 7.42, repro,
2008-04-16,-0.14, 1.79, -0.34, 2.03, 1.62, 7.42, repro,
2008-04-17,-1.07, 1.81, 0.15, 1.99, 1.57, 7.35, repro,
2008-04-18,0.45, 1.37, -1.14, 2.00, 1.57, 7.37, repro,
2008-04-19,-1.12, 2.22, -1.94, 2.00, 1.57, 7.35, repro,
2008-04-20,-0.45, 2.32, 0.86, 1.99, 1.57, 7.32, repro,
2008-04-21,-0.33, 2.78, -1.24, 2.00, 1.57, 7.35, repro,
2008-04-22,-0.54, 2.81, -4.19, 2.02, 1.58, 7.44, repro,
2008-04-23,-0.60, 2.86, -0.15, 2.07, 1.65, 7.66, repro,
2008-04-24,-0.13, 2.75, -3.30, 2.04, 1.60, 7.52, repro,
2008-04-25,0.31, 2.58, -2.20, 2.00, 1.56, 7.30, repro,
2008-04-26,-0.03, 2.41, -4.28, 2.10, 1.66, 7.68, repro,
2008-04-27,-1.01, 2.47, -4.31, 2.09, 1.61, 7.60, repro,
2008-04-28,-0.21, 1.76, -5.61, 2.09, 1.60, 7.61, repro,
2008-04-29,-0.93, 0.94, 4.49, 2.14, 1.60, 7.64, repro,
2008-04-30,-1.17, 1.98, -0.53, 2.06, 1.60, 7.43, repro,
2008-05-01,-0.47, 2.48, -1.01, 2.08, 1.63, 7.55, repro,
2008-05-02,-0.20, 1.97, 2.54, 2.09, 1.65, 7.62, repro,
2008-05-03,-0.56, 1.53, 2.43, 2.06, 1.60, 7.53, repro,
2008-05-04,-0.91, 1.99, 1.48, 2.02, 1.57, 7.40, repro,
2008-05-05,-0.39, 2.79, 0.28, 2.15, 1.66, 7.89, repro,
2008-05-06,-0.49, 0.89, 2.25, 2.05, 1.60, 7.41, repro,
2008-05-07,-0.10, 0.93, 2.66, 2.05, 1.60, 7.48, repro,
2008-05-08,-0.59, 2.11, -1.15, 2.25, 1.75, 8.09, repro,
2008-05-09,-0.64, 1.47, -1.01, 2.04, 1.60, 7.52, repro,
2008-05-10,-0.63, 3.16, 0.10, 2.05, 1.60, 7.47, repro,
2008-05-11,-0.92, 1.60, -0.21, 2.04, 1.59, 7.39, repro,
2008-05-12,-0.92, 1.42, 11.21, 2.11, 1.64, 7.66, repro,
2008-05-13,-0.70, 1.11, 6.74, 2.06, 1.59, 7.47, repro,
2008-05-14,0.13, 2.44, -3.26, 2.03, 1.57, 7.41, repro,
2008-05-15,-0.39, 1.71, -4.28, 2.03, 1.58, 7.43, repro,
2008-05-16,-0.33, 2.54, -3.75, 2.03, 1.57, 7.36, repro,
2008-05-17,-0.28, 1.54, 1.11, 2.05, 1.60, 7.45, repro,
2008-05-18,-0.88, 2.35, 4.17, 2.08, 1.61, 7.55, repro,
2008-05-19,-0.42, 2.28, 0.81, 2.01, 1.56, 7.31, repro,
2008-05-20,-0.27, 1.07, 8.54, 2.03, 1.60, 7.49, repro,
2008-05-21,-1.49, 0.58, 4.31, 2.01, 1.59, 7.42, repro,
2008-05-22,-0.95, 0.72, 7.47, 2.06, 1.65, 7.63, repro,
2008-05-23,-0.98, 1.70, 9.15, 2.02, 1.62, 7.57, repro,
2008-05-24,1.58, 1.92, 1.55, 2.03, 1.57, 7.38, repro,
2008-05-25,-0.33, 1.98, 3.71, 2.02, 1.58, 7.42, repro,
2008-05-26,-1.29, 2.40, 1.35, 2.02, 1.60, 7.46, repro,
2008-05-27,-0.52, 3.19, 2.41, 2.02, 1.58, 7.41, repro,
2008-05-28,0.07, 1.90, 1.60, 2.07, 1.64, 7.58, repro,
2008-05-29,0.60, 2.65, 1.90, 2.07, 1.62, 7.53, repro,
2008-05-30,-0.35, 2.36, 3.57, 2.02, 1.56, 7.32, repro,
2008-05-31,0.97, 1.99, 3.65, 1.99, 1.56, 7.29, repro,
2008-06-01,0.59, 2.13, -6.16, 2.01, 1.57, 7.40, repro,
2008-06-02,-0.14, 2.08, -2.11, 2.01, 1.58, 7.39, repro,
2008-06-03,0.86, 3.61, -4.94, 2.09, 1.64, 7.71, repro,
2008-06-04,-1.70, 2.32, 5.62, 2.01, 1.55, 7.31, repro,
2008-06-05,0.81, 2.14, 2.88, 2.05, 1.63, 7.56, repro,
2008-06-06,0.03, 1.14, 0.51, 2.03, 1.59, 7.43, repro,
2008-06-07,-0.22, 1.99, 8.45, 2.09, 1.65, 7.66, repro,
2008-06-08,0.10, 2.50, 4.01, 2.06, 1.62, 7.49, repro,
2008-06-09,0.96, 2.13, 1.46, 2.07, 1.61, 7.51, repro,
2008-06-10,0.41, 2.20, -0.54, 2.02, 1.55, 7.30, repro,
2008-06-11,-0.34, 1.56, 1.16, 2.01, 1.56, 7.33, repro,
2008-06-12,-0.11, 2.96, 2.01, 2.04, 1.60, 7.51, repro,
2008-06-13,0.23, 3.06, 3.26, 2.02, 1.57, 7.35, repro,
2008-06-14,0.93, 2.31, -0.01, 2.07, 1.59, 7.41, repro,
2008-06-15,-0.03, 2.23, 3.73, 2.07, 1.59, 7.39, repro,
2008-06-16,0.51, 2.17, 0.28, 2.02, 1.56, 7.35, repro,
2008-06-17,-0.01, 3.02, 0.91, 2.01, 1.56, 7.29, repro,
2008-06-18,0.25, 3.30, -0.82, 2.02, 1.56, 7.34, repro,
2008-06-19,1.21, 2.53, 0.50, 2.09, 1.67, 7.77, repro,
2008-06-20,-0.76, 2.84, 1.66, 2.02, 1.55, 7.30, repro,
2008-06-21,0.55, 1.78, -0.37, 2.02, 1.56, 7.36, repro,
2008-06-22,0.87, 4.64, -6.24, 2.02, 1.56, 7.34, repro,
2008-06-23,1.10, 1.98, 1.40, 2.03, 1.56, 7.36, repro,
2008-06-24,-0.08, 2.86, 3.17, 2.02, 1.56, 7.28, repro,
2008-06-25,1.19, 2.63, 1.13, 2.01, 1.54, 7.23, repro,
2008-06-26,-0.20, 2.55, 3.35, 2.06, 1.67, 7.58, repro,
2008-06-27,-0.03, 2.68, 7.21, 2.01, 1.54, 7.22, repro,
2008-06-28,0.76, 1.81, 5.44, 2.08, 1.62, 7.56, repro,
2008-06-29,1.12, 1.87, 1.04, 2.06, 1.61, 7.46, repro,
2008-06-30,0.53, 2.44, -6.32, 2.01, 1.55, 7.21, repro,
2008-07-01,0.85, 0.60, -0.03, 2.05, 1.61, 7.41, repro,
2008-07-02,1.27, 1.08, -1.17, 2.00, 1.54, 7.23, repro,
2008-07-03,0.44, 1.07, 11.56, 2.03, 1.56, 7.36, repro,
2008-07-04,0.48, 3.41, 6.96, 2.02, 1.56, 7.35, repro,
2008-07-05,0.95, 3.71, 1.54, 2.06, 1.61, 7.49, repro,
2008-07-06,0.22, 2.30, 6.99, 2.09, 1.63, 7.55, repro,
2008-07-07,0.86, 3.14, 1.71, 2.08, 1.69, 7.64, repro,
2008-07-08,-0.08, 2.36, 5.98, 2.02, 1.56, 7.33, repro,
2008-07-09,1.10, 1.35, 11.22, 2.07, 1.62, 7.55, repro,
2008-07-10,0.52, 1.12, 7.21, 2.09, 1.59, 7.43, repro,
2008-07-11,0.02, 1.94, 6.38, 2.13, 1.66, 7.58, repro,
2008-07-12,1.12, 1.72, 4.41, 2.02, 1.55, 7.23, repro,
2008-07-13,-0.51, 2.07, 6.25, 2.07, 1.62, 7.50, repro,
2008-07-14,-0.96, 1.33, 7.22, 2.07, 1.62, 7.55, repro,
2008-07-15,0.85, 1.13, 4.22, 2.02, 1.55, 7.28, repro,
2008-07-16,0.04, 1.15, 2.08, 2.02, 1.56, 7.29, repro,
2008-07-17,0.52, 2.45, 1.43, 2.02, 1.56, 7.29, repro,
2008-07-18,0.54, 2.46, 4.33, 2.14, 1.60, 7.65, repro,
2008-07-19,0.02, 1.81, 7.98, 2.10, 1.57, 7.62, repro,
2008-07-20,0.91, 0.53, 9.01, 2.01, 1.55, 7.25, repro,
2008-07-21,-0.21, 2.52, 10.89, 2.08, 1.58, 7.45, repro,
2008-07-22,-0.28, 2.06, 4.80, 2.01, 1.55, 7.22, repro,
2008-07-23,0.15, 1.95, 5.36, 2.05, 1.56, 7.36, repro,
2008-07-24,-0.02, 1.73, 5.84, 2.02, 1.56, 7.32, repro,
2008-07-25,-0.09, 1.71, 5.96, 2.01, 1.55, 7.28, repro,
2008-07-26,0.93, 2.35, 9.36, 2.02, 1.55, 7.28, repro,
2008-07-27,-1.52, 0.80, 7.50, 2.02, 1.54, 7.27, repro,
2008-07-28,2.06, 0.93, 8.09, 2.07, 1.59, 7.36, repro,
2008-07-29,0.19, 1.02, 15.40, 2.08, 1.57, 7.61, repro,
2008-07-30,-0.47, 3.34, 11.08, 2.09, 1.56, 7.59, repro,
2008-07-31,-0.02, 2.67, 11.93, 2.01, 1.54, 7.27, repro,
2008-08-01,-0.16, 2.24, 5.21, 2.01, 1.55, 7.28, repro,
2008-08-02,-1.58, 3.86, 9.01, 2.04, 1.60, 7.38, repro,
2008-08-03,1.02, 1.81, 2.50, 2.05, 1.60, 7.39, repro,
2008-08-04,0.54, 1.42, 7.13, 2.01, 1.55, 7.26, repro,
2008-08-05,-0.03, 2.78, 5.71, 2.02, 1.54, 7.28, repro,
2008-08-06,-0.80, 2.00, 5.44, 2.07, 1.57, 7.46, repro,
2008-08-07,-0.64, 1.68, 10.20, 2.12, 1.61, 7.55, repro,
2008-08-08,1.26, 0.72, 11.11, 2.10, 1.61, 7.48, repro,
2008-08-09,-1.05, 0.15, 9.17, 2.07, 1.57, 7.42, repro,
2008-08-10,-0.88, 1.55, 1.52, 2.08, 1.56, 7.44, repro,
2008-08-11,0.75, 1.08, 3.62, 2.07, 1.57, 7.44, repro,
2008-08-12,-0.44, 1.49, 7.94, 2.08, 1.57, 7.48, repro,
2008-08-13,0.15, 1.23, 7.28, 2.06, 1.56, 7.39, repro,
2008-08-14,-0.04, 0.98, 10.80, 2.09, 1.63, 7.56, repro,
2008-08-15,-0.02, 2.32, 6.48, 2.09, 1.57, 7.51, repro,
2008-08-16,0.80, 1.89, 6.82, 2.08, 1.57, 7.47, repro,
2008-08-17,-0.15, 1.63, 9.31, 2.08, 1.57, 7.48, repro,
2008-08-18,0.66, 1.93, 9.57, 2.09, 1.59, 7.56, repro,
2008-08-19,0.60, 1.59, 8.45, 2.06, 1.57, 7.44, repro,
2008-08-20,-0.88, 1.63, 6.72, 2.07, 1.56, 7.40, repro,
2008-08-21,-0.34, 0.74, 11.92, 2.09, 1.57, 7.49, repro,
2008-08-22,2.26, 0.90, 1.62, 2.07, 1.56, 7.45, repro,
2008-08-23,-0.45, 2.35, 7.60, 2.06, 1.57, 7.42, repro,
2008-08-24,0.13, 1.19, 2.68, 2.06, 1.59, 7.51, repro,
2008-08-25,-1.70, 2.55, 9.67, 2.12, 1.64, 7.66, repro,
2008-08-26,-0.52, 0.44, 10.78, 2.14, 1.58, 7.56, repro,
2008-08-27,-0.31, 0.84, 9.24, 2.10, 1.60, 7.60, repro,
2008-08-28,0.04, 0.71, 8.46, 2.21, 1.67, 7.92, repro,
2008-08-29,0.25, 0.63, 6.43, 2.08, 1.58, 7.49, repro,
2008-08-30,-0.09, 0.45, 13.69, 2.10, 1.59, 7.55, repro,
2008-08-31,0.02, 0.63, 10.06, 2.11, 1.59, 7.55, repro,
2008-09-01,0.29, -0.13, 7.20, 2.11, 1.59, 7.57, repro,
2008-09-02,-0.60, 1.29, 3.91, 2.08, 1.59, 7.54, repro,
2008-09-03,0.35, 0.85, 8.70, 2.09, 1.60, 7.54, repro,
2008-09-04,-0.45, 0.71, 7.16, 2.20, 1.71, 8.05, repro,
2008-09-05,0.21, 1.48, 4.30, 2.17, 1.64, 7.69, repro,
2008-09-06,-0.55, 0.68, 7.24, 2.11, 1.59, 7.56, repro,
2008-09-07,-0.28, 1.75, 8.02, 2.09, 1.59, 7.57, repro,
2008-09-08,-0.37, 1.41, 2.29, 2.11, 1.63, 7.67, repro,
2008-09-09,-0.42, 1.32, 6.98, 2.12, 1.58, 7.60, repro,
2008-09-10,-0.09, 2.26, 8.99, 2.12, 1.62, 7.67, repro,
2008-09-11,-0.82, 0.14, 6.76, 2.13, 1.63, 7.69, repro,
2008-09-12,-1.15, 0.00, 9.28, 2.17, 1.67, 7.90, repro,
2008-09-13,-1.75, 1.46, 7.00, 2.10, 1.62, 7.68, repro,
2008-09-14,-0.97, 0.89, 7.17, 2.11, 1.61, 7.58, repro,
2008-09-15,-0.87, 1.91, 5.43, 2.12, 1.62, 7.67, repro,
2008-09-16,0.32, 0.62, 2.53, 2.08, 1.62, 7.55, repro,
2008-09-17,-0.66, 0.84, -1.16, 2.16, 1.63, 7.73, repro,
2008-09-18,-0.40, 1.08, 2.04, 2.08, 1.56, 7.44, repro,
2008-09-19,-0.45, 1.01, 4.78, 2.09, 1.61, 7.61, repro,
2008-09-20,0.31, 1.36, 8.09, 2.06, 1.56, 7.38, repro,
2008-09-21,-0.29, 1.38, 5.50, 2.06, 1.56, 7.40, repro,
2008-09-22,-0.22, 0.93, 6.23, 2.08, 1.59, 7.60, repro,
2008-09-23,0.64, 0.10, 9.11, 2.05, 1.55, 7.37, repro,
2008-09-24,-0.02, 0.80, 10.61, 2.16, 1.67, 7.84, repro,
2008-09-25,0.23, 1.51, 7.38, 2.10, 1.59, 7.57, repro,
2008-09-26,0.31, 1.18, 13.51, 2.06, 1.56, 7.41, repro,
2008-09-27,-1.15, 2.05, 5.74, 2.09, 1.60, 7.54, repro,
2008-09-28,-0.85, 0.74, 4.62, 2.06, 1.55, 7.35, repro,
2008-09-29,-0.41, -0.40, 3.13, 2.11, 1.61, 7.59, repro,
2008-09-30,0.64, 1.76, 2.06, 2.07, 1.56, 7.44, repro,
2008-10-01,-0.27, 2.08, 5.13, 2.07, 1.55, 7.40, repro,
2008-10-02,-1.03, 1.96, -0.90, 2.11, 1.61, 7.60, repro,
2008-10-03,0.47, 0.80, 6.58, 2.13, 1.65, 7.71, repro,
2008-10-04,-0.81, 0.11, 8.84, 2.08, 1.56, 7.43, repro,
2008-10-05,-2.04, 0.61, 9.49, 2.15, 1.67, 7.83, repro,
2008-10-06,-0.09, 1.20, 6.28, 2.07, 1.56, 7.41, repro,
2008-10-07,0.26, 1.77, 3.68, 2.09, 1.56, 7.45, repro,
2008-10-08,0.10, 1.26, 6.27, 2.07, 1.58, 7.47, repro,
2008-10-09,-1.64, 0.87, 2.30, 2.02, 1.54, 7.27, repro,
2008-10-10,-1.74, 1.17, -2.62, 2.01, 1.55, 7.29, repro,
2008-10-11,-0.68, 1.62, -0.14, 2.02, 1.55, 7.30, repro,
2008-10-12,0.13, 1.99, 3.95, 2.03, 1.55, 7.35, repro,
2008-10-13,0.38, 2.16, 4.80, 2.02, 1.54, 7.31, repro,
2008-10-14,-0.43, 1.82, 2.21, 2.02, 1.55, 7.30, repro,
2008-10-15,-0.19, 1.59, 3.56, 2.08, 1.57, 7.47, repro,
2008-10-16,-0.19, 1.76, 3.16, 2.06, 1.58, 7.45, repro,
2008-10-17,-0.29, 1.26, -0.21, 2.03, 1.55, 7.36, repro,
2008-10-18,-0.07, 0.85, 3.30, 2.02, 1.53, 7.25, repro,
2008-10-19,-0.02, 1.10, 2.87, 2.02, 1.54, 7.27, repro,
2008-10-20,-1.71, -0.33, 9.00, 2.02, 1.54, 7.24, repro,
2008-10-21,-1.12, 2.08, 4.11, 2.00, 1.54, 7.22, repro,
2008-10-22,-0.98, 1.34, 2.73, 2.01, 1.55, 7.27, repro,
2008-10-23,-0.19, 2.45, 3.03, 2.01, 1.54, 7.24, repro,
2008-10-24,0.18, 1.54, 7.46, 2.02, 1.54, 7.28, repro,
2008-10-25,0.78, 1.26, 8.70, 2.05, 1.59, 7.33, repro,
2008-10-26,-0.40, 1.40, 0.70, 2.01, 1.54, 7.23, repro,
2008-10-27,-0.07, 1.34, -1.89, 2.01, 1.54, 7.27, repro,
2008-10-28,-0.64, 0.97, -3.87, 2.09, 1.56, 7.43, repro,
2008-10-29,-1.03, 1.20, 1.19, 2.09, 1.56, 7.41, repro,
2008-10-30,0.13, 0.78, 1.91, 2.02, 1.55, 7.32, repro,
2008-10-31,0.98, 2.31, 0.52, 2.11, 1.59, 7.54, repro,
2008-11-01,0.80, -0.03, 6.74, 2.04, 1.56, 7.41, repro,
2008-11-02,0.39, 1.55, 3.56, 2.03, 1.59, 7.42, repro,
2008-11-03,2.07, 1.80, 3.51, 2.05, 1.57, 7.36, repro,
2008-11-04,0.65, 0.96, 2.60, 2.04, 1.60, 7.44, repro,
2008-11-05,-1.64, 0.97, 0.81, 2.05, 1.58, 7.43, repro,
2008-11-06,-0.04, 1.80, -2.98, 2.07, 1.62, 7.56, repro,
2008-11-07,0.61, 1.64, -3.62, 2.04, 1.61, 7.46, repro,
2008-11-08,0.26, 1.02, -0.43, 2.06, 1.62, 7.51, repro,
2008-11-09,-1.76, -0.28, 3.69, 2.05, 1.60, 7.52, repro,
2008-11-10,0.56, -0.02, 1.21, 2.04, 1.60, 7.43, repro,
2008-11-11,0.86, 1.41, 6.10, 2.20, 1.82, 8.23, repro,
2008-11-12,0.21, 0.76, 2.61, 2.02, 1.56, 7.37, repro,
2008-11-13,-1.56, 1.75, 3.71, 2.08, 1.63, 7.50, repro,
2008-11-14,-0.35, 1.40, 3.51, 2.14, 1.72, 7.78, repro,
2008-11-15,-0.91, 2.30, -0.33, 2.07, 1.63, 7.60, repro,
2008-11-16,0.95, 1.58, -3.86, 2.10, 1.66, 7.64, repro,
2008-11-17,0.78, 2.27, 2.00, 2.12, 1.68, 7.71, repro,
2008-11-18,0.50, 1.47, -3.56, 2.25, 1.82, 8.37, repro,